Mount Sterling, KY

6:28 PM EST on February 27, 2017 (GMT -0500)
Mount Sterling-Montgomery County

Weather History for KIOB - August, 2013

Change the Weather History Date:

Sunday, August 18, 2013

  Actual Average Record
Temperature  
Mean Temperature 68 °F -  
Max Temperature 73 °F 85 °F 82 °F (2015)
Min Temperature 62 °F 64 °F 62 °F (2013)
Cooling Degree Days 2    
Growing Degree Days 18 (Base 50)    
Moisture  
Dew Point 64 °F    
Average Humidity 89    
Maximum Humidity 100    
Minimum Humidity 73    
Precipitation  
Precipitation 0.04 in - - ()
Sea Level Pressure  
Sea Level Pressure 30.17 in    
Wind  
Wind Speed 2 mph (SE)    
Max Wind Speed 6 mph    
Max Gust Speed -    
Visibility 9 miles    
Events Rain    
Averages and records for this station are not official NWS values.
T = Trace of Precipitation, MM = Missing Value Source: NWS Daily Summary

Daily Weather History Graph

Daily Weather History Graph

Search for Another Location

Airport or City:

Trip Planner

Search our weather history database for the weather conditions in past years. The results will help you decide how hot, cold, wet, or windy it might be!

Date:

Astronomy

Aug. 18, 2013 Rise Set
Actual Time 6:53 AM EDT 8:24 PM EDT
Civil Twilight 6:25 AM EDT 8:52 PM EDT
Nautical Twilight 5:52 AM EDT 9:26 PM EDT
Astronomical Twilight 5:17 AM EDT 10:01 PM EDT
Moon 6:29 PM EDT (8/18) 4:03 AM EDT (8/18)
Length of Visible Light 14h 26m
Length of Day
13h 31m
Waxing Gibbous, 92% of the Moon is Illuminated
Aug 18
Waxing Gibbous
Aug 20
Full
Aug 28
Last Quarter
Sep 5
New
Sep 12
First Quarter

Hourly Weather History & Observations

Time (EDT) Temp. Dew Point Humidity Pressure Visibility Wind Dir Wind Speed Gust Speed Precip Events Conditions
12:15 AM 68.0 °F 60.8 °F 78% 30.16 in 10.0 mi ESE 3.5 mph - N/A   Scattered Clouds
12:35 AM 66.2 °F 60.8 °F 83% 30.16 in 10.0 mi Calm Calm - N/A   Scattered Clouds
12:55 AM 64.4 °F 60.8 °F 88% 30.17 in 10.0 mi Calm Calm - N/A   Clear
1:15 AM 66.2 °F 60.8 °F 83% 30.16 in 10.0 mi East 3.5 mph - N/A   Scattered Clouds
1:35 AM 64.4 °F 60.8 °F 88% 30.16 in 10.0 mi Calm Calm - N/A   Mostly Cloudy
1:55 AM 64.4 °F 62.6 °F 94% 30.15 in 10.0 mi Calm Calm - N/A   Clear
2:15 AM 64.4 °F 62.6 °F 94% 30.15 in 10.0 mi East 3.5 mph - N/A   Clear
2:35 AM 64.4 °F 62.6 °F 94% 30.15 in 10.0 mi Calm Calm - N/A   Clear
2:55 AM 62.6 °F 62.6 °F 100% 30.15 in 10.0 mi Calm Calm - N/A   Mostly Cloudy
3:15 AM 64.4 °F 62.6 °F 94% 30.15 in 10.0 mi East 3.5 mph - N/A   Scattered Clouds
3:35 AM 66.2 °F 60.8 °F 83% 30.15 in 10.0 mi ESE 3.5 mph - N/A   Scattered Clouds
3:55 AM 64.4 °F 62.6 °F 94% 30.15 in 10.0 mi Calm Calm - N/A   Mostly Cloudy
4:15 AM 64.4 °F 62.6 °F 94% 30.15 in 10.0 mi ESE 3.5 mph - N/A Rain Light Rain
4:35 AM 64.4 °F 60.8 °F 88% 30.14 in 10.0 mi ESE 4.6 mph - N/A   Mostly Cloudy
4:55 AM 62.6 °F 62.6 °F 100% 30.15 in 10.0 mi Calm Calm - N/A   Mostly Cloudy
5:15 AM 64.4 °F 60.8 °F 88% 30.15 in 10.0 mi Calm Calm - N/A   Mostly Cloudy
5:35 AM 64.4 °F 62.6 °F 94% 30.14 in 10.0 mi Calm Calm - N/A   Overcast
5:55 AM 64.4 °F 62.6 °F 94% 30.15 in 10.0 mi Calm Calm - N/A   Overcast
6:15 AM 62.6 °F 62.6 °F 100% 30.15 in 10.0 mi Calm Calm - N/A   Overcast
6:35 AM 64.4 °F 62.6 °F 94% 30.16 in 10.0 mi Calm Calm - N/A Rain Light Rain
6:55 AM 64.4 °F 62.6 °F 94% 30.17 in 10.0 mi Calm Calm - N/A Rain Light Rain
7:15 AM 64.4 °F 62.6 °F 94% 30.17 in 10.0 mi Calm Calm - N/A   Overcast
7:35 AM 64.4 °F 62.6 °F 94% 30.18 in 10.0 mi Calm Calm - N/A   Overcast
7:55 AM 64.4 °F 62.6 °F 94% 30.18 in 10.0 mi Calm Calm - N/A   Overcast
8:15 AM 64.4 °F 62.6 °F 94% 30.18 in 10.0 mi Calm Calm - N/A   Overcast
8:35 AM 64.4 °F 62.6 °F 94% 30.19 in 10.0 mi Calm Calm - N/A   Overcast
8:55 AM 64.4 °F 62.6 °F 94% 30.19 in 10.0 mi Calm Calm - N/A   Overcast
9:15 AM 66.2 °F 64.4 °F 94% 30.20 in 10.0 mi Calm Calm - N/A   Overcast
9:35 AM 66.2 °F 64.4 °F 94% 30.20 in 10.0 mi Calm Calm - N/A   Overcast
9:55 AM 68.0 °F 62.6 °F 83% 30.20 in 10.0 mi SW 3.5 mph - N/A   Overcast
10:15 AM 66.2 °F 64.4 °F 94% 30.21 in 10.0 mi SSW 5.8 mph - N/A   Overcast
10:35 AM 66.2 °F 64.4 °F 94% 30.21 in 10.0 mi SW 3.5 mph - N/A   Overcast
10:55 AM 66.2 °F 64.4 °F 94% 30.22 in 5.0 mi WSW 3.5 mph - N/A   Drizzle
11:15 AM 66.2 °F 64.4 °F 94% 30.22 in 4.0 mi Calm Calm - N/A   Drizzle
11:35 AM 66.2 °F 64.4 °F 94% 30.22 in 5.0 mi Calm Calm - 0.01 in   Drizzle
11:55 AM 66.2 °F 64.4 °F 94% 30.22 in 5.0 mi SW 3.5 mph - 0.01 in Rain Heavy Rain
12:15 PM 68.0 °F 64.4 °F 88% 30.22 in 3.0 mi WSW 3.5 mph - N/A   Heavy Drizzle
12:35 PM 68.0 °F 66.2 °F 94% 30.22 in 2.5 mi Calm Calm - 0.02 in   Heavy Drizzle
12:55 PM 68.0 °F 64.4 °F 88% 30.21 in 3.0 mi Calm Calm - 0.02 in   Drizzle
1:15 PM 68.0 °F 66.2 °F 94% 30.21 in 7.0 mi Calm Calm - N/A Rain Rain
1:35 PM 69.8 °F 66.2 °F 88% 30.21 in 7.0 mi Calm Calm - 0.01 in   Light Drizzle
1:55 PM 69.8 °F 66.2 °F 88% 30.21 in 10.0 mi Calm Calm - 0.01 in   Overcast
2:15 PM 69.8 °F 64.4 °F 83% 30.20 in 10.0 mi Calm Calm - N/A   Overcast
2:35 PM 71.6 °F 64.4 °F 78% 30.19 in 10.0 mi Calm Calm - N/A   Overcast
2:55 PM 71.6 °F 66.2 °F 83% 30.19 in 10.0 mi ENE 3.5 mph - N/A   Overcast
3:15 PM 71.6 °F 66.2 °F 83% 30.18 in 10.0 mi Calm Calm - N/A   Overcast
3:35 PM 73.4 °F 66.2 °F 78% 30.18 in 10.0 mi Calm Calm - N/A   Mostly Cloudy
3:55 PM 73.4 °F 66.2 °F 78% 30.17 in 10.0 mi East 4.6 mph - N/A   Scattered Clouds
4:15 PM 73.4 °F 64.4 °F 73% 30.16 in 10.0 mi Calm Calm - N/A   Scattered Clouds
4:35 PM 73.4 °F 64.4 °F 73% 30.16 in 10.0 mi Calm Calm - N/A   Mostly Cloudy
4:55 PM 73.4 °F 64.4 °F 73% 30.16 in 10.0 mi ESE 3.5 mph - N/A   Mostly Cloudy
5:15 PM 71.6 °F 66.2 °F 83% 30.16 in 10.0 mi ESE 4.6 mph - N/A   Mostly Cloudy
5:35 PM 73.4 °F 66.2 °F 78% 30.16 in 10.0 mi ESE 4.6 mph - N/A   Mostly Cloudy
5:55 PM 73.4 °F 66.2 °F 78% 30.16 in 10.0 mi SE 4.6 mph - N/A   Clear
6:15 PM 73.4 °F 66.2 °F 78% 30.16 in 10.0 mi SE 4.6 mph - N/A   Scattered Clouds
6:35 PM 73.4 °F 66.2 °F 78% 30.15 in 10.0 mi ESE 4.6 mph - N/A   Clear
6:55 PM 73.4 °F 66.2 °F 78% 30.15 in 10.0 mi SE 3.5 mph - N/A   Clear
7:15 PM 73.4 °F 66.2 °F 78% 30.15 in 10.0 mi SSE 4.6 mph - N/A   Scattered Clouds
7:35 PM 71.6 °F 66.2 °F 83% 30.15 in 10.0 mi SSE 3.5 mph - N/A   Scattered Clouds
7:55 PM 71.6 °F 66.2 °F 83% 30.16 in 10.0 mi SE 3.5 mph - N/A   Scattered Clouds
8:15 PM 71.6 °F 66.2 °F 83% 30.16 in 10.0 mi South 3.5 mph - N/A   Scattered Clouds
8:35 PM 69.8 °F 66.2 °F 88% 30.17 in 10.0 mi SSE 3.5 mph - N/A   Clear
8:55 PM 69.8 °F 66.2 °F 88% 30.16 in 10.0 mi SSE 3.5 mph - N/A   Clear
9:15 PM 69.8 °F 66.2 °F 88% 30.16 in 10.0 mi SE 3.5 mph - N/A   Clear
9:35 PM 69.8 °F 66.2 °F 88% 30.17 in 10.0 mi Calm Calm - N/A   Clear
9:55 PM 68.0 °F 66.2 °F 94% 30.17 in 10.0 mi Calm Calm - N/A   Scattered Clouds
10:15 PM 68.0 °F 66.2 °F 94% 30.18 in 10.0 mi Calm Calm - N/A   Mostly Cloudy
10:35 PM 68.0 °F 68.0 °F 100% 30.18 in 10.0 mi Calm Calm - N/A   Mostly Cloudy
10:55 PM 68.0 °F 66.2 °F 94% 30.18 in 10.0 mi Calm Calm - N/A   Overcast
11:15 PM 68.0 °F 68.0 °F 100% 30.18 in 10.0 mi Calm Calm - N/A   Overcast
11:35 PM 68.0 °F 68.0 °F 100% 30.18 in 10.0 mi Calm Calm - N/A   Overcast
11:55 PM 68.0 °F 66.2 °F 94% 30.18 in 10.0 mi Calm Calm - N/A   Scattered Clouds